Location: Carri�res
(48.9069°N, 2.1792°E)
Time: 18:56:13
(UTC+00:00)

SeaSat 1 - Pass Details

Date: 15 May 2021
Orbit: 744 x 747 km, 108.0° (Epoch: 12 June)

Event Time Altitude Azimuth Distance (km) Brightness Sun altitude
Rises 00:10:25 0° 31° (NNE) 3,202 6.8 -22.0°
Reaches altitude 10° 00:12:44 10° 36° (NE) 2,274 5.8 -22.0°
Maximum altitude 00:17:37 59° 116° (ESE) 863 2.6 -21.9°
Enters shadow 00:18:33 50° 160° (SSE) 952 2.6 -21.9°
